period_start,C,m1,H,J0,J1,J2,J3,J4,J5,JA,JB,JC,JD,JJ,JK,JN,#
2015-07-21 00:02:21,0.09,0.02,0.00,23.90,26.33,28.98,4.71,24.26,1010.59,2044.97,3449.10,3251.56,3548.18,350.57,345.15,1.00,0000 0000 0000 0000 000000
2015-07-21 00:07:23,-0.01,0.02,0.00,23.90,26.41,29.03,4.64,24.55,1010.61,2044.44,3447.81,3250.44,3546.96,349.38,343.80,1.03,0000 0000 0000 0000 000000
2015-07-21 00:12:24,0.02,0.02,0.00,23.90,26.48,29.07,4.70,24.29,1010.62,2044.01,3447.02,3249.86,3546.09,349.61,344.23,1.06,0000 0000 0000 0000 000000
2015-07-21 00:17:26,0.07,0.02,0.00,23.92,26.55,29.12,4.69,24.26,1010.63,2043.96,3446.23,3249.06,3545.33,349.78,344.40,1.08,0000 0000 0000 0000 000000
2015-07-21 00:22:27,-0.07,0.02,0.00,23.95,26.61,29.16,4.66,24.21,1010.72,2043.36,3445.81,3248.63,3544.83,349.71,344.33,1.11,0000 0000 0000 0000 000000
2015-07-21 00:27:28,0.02,0.02,0.00,23.95,26.67,29.20,4.66,24.21,1010.75,2043.01,3444.99,3247.99,3544.04,349.90,344.51,1.14,0000 0000 0000 0000 000000
2015-07-21 00:32:30,0.07,0.02,0.00,23.95,26.73,29.23,4.76,24.28,1010.75,2042.97,3444.13,3247.21,3543.26,350.34,344.92,1.17,0000 0000 0000 0000 000000
2015-07-21 00:37:31,-0.06,0.02,0.00,23.97,26.78,29.27,4.72,24.27,1010.75,2042.54,3443.75,3246.87,3542.74,349.93,344.44,1.20,0000 0000 0000 0000 000000
2015-07-21 00:42:32,0.01,0.02,0.00,23.98,26.83,29.30,4.75,24.20,1010.76,2042.03,3443.03,3246.10,3542.02,349.93,344.37,1.23,0000 0000 0000 0000 000000
2015-07-21 00:47:34,0.03,0.02,0.00,23.99,26.88,29.35,4.68,24.19,1010.76,2042.00,3442.61,3245.96,3541.71,349.99,344.65,1.26,0000 0000 0000 0000 000000
2015-07-21 00:52:35,0.09,0.02,0.00,24.00,26.92,29.38,4.74,24.18,1010.76,2041.98,3441.46,3245.17,3540.83,349.93,344.48,1.29,0000 0000 0000 0000 000000
2015-07-21 00:57:36,0.06,0.03,0.00,24.00,26.97,29.41,4.71,24.11,1010.76,2041.81,3440.14,3244.31,3540.03,350.03,344.48,1.32,0000 0000 0000 0000 000000
2015-07-21 01:02:38,-0.07,0.02,0.00,24.02,27.01,29.44,4.79,24.32,1010.76,2041.19,3439.44,3243.99,3539.30,350.67,345.34,1.35,0000 0000 0000 0000 000000
2015-07-21 01:07:39,0.05,0.03,0.00,24.02,27.04,29.48,4.74,24.42,1010.76,2041.01,3438.77,3243.30,3538.92,349.70,344.36,1.38,0000 0000 0000 0000 000000
2015-07-21 01:12:40,0.03,0.03,0.00,24.03,27.08,29.50,4.72,24.24,1010.76,2041.00,3438.14,3242.99,3538.26,350.01,344.36,1.41,0000 0000 0000 0000 000000
2015-07-21 01:17:42,0.04,0.03,0.00,24.05,27.11,29.53,4.67,24.18,1010.76,2040.98,3437.76,3242.53,3537.92,349.92,344.36,1.44,0000 0000 0000 0000 000000
2015-07-21 01:22:43,0.04,0.03,0.00,24.06,27.15,29.55,4.74,24.21,1010.76,2040.96,3437.06,3242.02,3537.23,349.89,344.36,1.47,0000 0000 0000 0000 000000
2015-07-21 01:27:44,-0.09,0.03,0.00,24.06,27.18,29.60,4.66,24.20,1010.76,2040.54,3437.00,3242.00,3537.00,349.38,343.90,1.49,0000 0000 0000 0000 000000
2015-07-21 01:32:46,-0.03,0.03,0.00,24.07,27.21,29.62,4.69,24.18,1010.77,2040.08,3436.84,3241.82,3536.90,349.97,344.37,1.52,0000 0000 0000 0000 000000
2015-07-21 01:37:47,0.05,0.03,0.00,24.08,27.24,29.64,4.72,24.22,1010.79,2040.02,3436.16,3241.18,3536.19,350.36,344.79,1.55,0000 0000 0000 0000 000000
2015-07-21 01:42:49,0.00,0.03,0.00,24.10,27.27,29.69,4.73,24.17,1010.78,2040.00,3436.00,3241.00,3536.01,350.13,344.59,1.58,0000 0000 0000 0000 000000
2015-07-21 01:47:50,0.01,0.03,0.00,24.10,27.30,29.70,4.74,24.09,1010.76,2040.00,3435.82,3240.95,3535.95,350.29,344.72,1.61,0000 0000 0000 0000 000000
2015-07-21 01:52:51,0.07,0.03,0.00,24.11,27.32,29.73,4.75,24.18,1010.77,2040.00,3435.06,3240.30,3535.19,350.20,344.65,1.64,0000 0000 0000 0000 000000
2015-07-21 01:57:52,0.02,0.03,0.00,24.12,27.35,29.76,4.79,24.19,1010.79,2039.96,3434.37,3240.00,3534.93,350.70,344.96,1.67,0000 0000 0000 0000 000000
2015-07-21 02:02:54,-0.01,0.03,0.00,24.14,27.37,29.79,4.71,24.21,1010.78,2039.81,3434.04,3239.96,3534.46,349.87,344.23,1.70,0000 0000 0000 0000 000000
2015-07-21 02:07:55,-0.06,0.03,0.00,24.15,27.40,29.80,4.70,24.18,1010.78,2039.21,3434.00,3239.51,3534.03,349.91,344.32,1.73,0000 0000 0000 0000 000000
2015-07-21 02:12:56,0.00,0.03,0.00,24.15,27.42,29.83,4.67,24.11,1010.78,2039.08,3433.99,3239.14,3534.00,350.24,344.37,1.76,0000 0000 0000 0000 000000
2015-07-21 02:17:57,-0.00,0.03,0.00,24.17,27.44,29.84,4.73,24.16,1010.78,2039.01,3433.96,3239.01,3533.98,350.04,344.14,1.79,0000 0000 0000 0000 000000
2015-07-21 02:22:59,0.01,0.03,0.00,24.17,27.46,29.87,4.79,24.09,1010.77,2039.00,3433.67,3239.00,3533.95,350.44,344.89,1.82,0000 0000 0000 0000 000000
2015-07-21 02:28:00,0.01,0.03,0.00,24.17,27.48,29.87,4.67,24.09,1010.78,2039.00,3433.56,3239.00,3533.65,349.86,344.24,1.85,0000 0000 0000 0000 000000
2015-07-21 02:33:02,0.02,0.03,0.00,24.18,27.50,29.89,4.72,24.25,1010.78,2038.99,3433.10,3238.98,3533.10,349.72,343.85,1.88,0000 0000 0000 0000 000000
2015-07-21 02:38:03,0.01,0.03,0.00,24.20,27.52,29.91,4.76,24.13,1010.80,2038.97,3433.00,3238.79,3533.00,350.35,344.78,1.90,0000 0000 0000 0000 000000
2015-07-21 02:43:04,0.01,0.03,0.00,24.22,27.53,29.93,4.69,24.12,1010.83,2038.95,3432.99,3238.42,3532.99,350.14,344.43,1.93,0000 0000 0000 0000 000000
2015-07-21 02:48:05,0.00,0.03,0.00,24.23,27.55,29.95,4.78,24.19,1010.97,2038.89,3432.94,3238.04,3532.95,349.94,344.27,1.96,0000 0000 0000 0000 000000
2015-07-21 02:53:06,-0.03,0.03,0.00,24.23,27.57,29.96,4.69,24.26,1011.07,2038.67,3432.73,3238.01,3532.67,349.80,344.14,1.99,0000 0000 0000 0000 000000
2015-07-21 02:58:07,-0.03,0.03,0.00,24.25,27.59,29.97,4.73,24.14,1011.03,2038.20,3432.24,3237.99,3532.13,350.04,344.54,2.02,0000 0000 0000 0000 000000
2015-07-21 03:03:08,-0.01,0.03,0.00,24.27,27.60,30.00,4.68,24.14,1011.08,2038.06,3432.01,3237.98,3532.01,350.10,344.33,2.05,0000 0000 0000 0000 000000
2015-07-21 03:08:09,0.02,0.03,0.00,24.27,27.62,30.00,4.74,24.27,1011.17,2038.02,3431.97,3237.70,3531.98,350.36,344.81,2.08,0000 0000 0000 0000 000000
2015-07-21 03:13:10,0.03,0.03,0.00,24.27,27.63,30.01,4.65,24.11,1011.21,2038.01,3431.65,3237.17,3531.90,350.08,344.31,2.11,0000 0000 0000 0000 000000
2015-07-21 03:18:11,0.02,0.03,0.00,24.29,27.65,30.03,4.78,24.10,1011.21,2038.00,3431.32,3237.04,3531.59,350.08,344.26,2.14,0000 0000 0000 0000 000000
2015-07-21 03:23:12,0.01,0.03,0.00,24.30,27.66,30.04,4.71,24.13,1011.24,2038.00,3431.21,3237.01,3531.20,349.95,343.98,2.17,0000 0000 0000 0000 000000
2015-07-21 03:28:13,0.01,0.03,0.00,24.30,27.67,30.07,4.73,24.06,1011.25,2038.00,3431.12,3237.01,3531.09,350.25,344.53,2.20,0000 0000 0000 0000 000000
2015-07-21 03:33:15,0.00,0.03,0.00,24.29,27.70,30.08,4.70,24.07,1011.25,2038.00,3431.01,3237.00,3531.00,350.17,344.72,2.23,0000 0000 0000 0000 000000
2015-07-21 03:38:16,0.00,0.03,0.00,24.30,27.70,30.09,4.66,24.10,1011.26,2037.99,3431.00,3237.00,3531.00,349.97,344.08,2.26,0000 0000 0000 0000 000000
2015-07-21 03:43:17,-0.01,0.03,0.00,24.30,27.72,30.10,4.70,24.18,1011.29,2037.96,3431.00,3236.99,3530.98,349.92,344.50,2.29,0000 0000 0000 0000 000000
2015-07-21 03:48:18,0.01,0.03,0.00,24.33,27.73,30.12,4.78,24.18,1011.29,2037.97,3430.99,3236.96,3530.96,350.27,344.59,2.31,0000 0000 0000 0000 000000
2015-07-21 03:53:20,-0.00,0.03,0.00,24.34,27.75,30.13,4.71,24.18,1011.38,2037.90,3430.98,3236.88,3530.85,350.21,344.43,2.34,0000 0000 0000 0000 000000
2015-07-21 03:58:21,0.00,0.03,0.00,24.34,27.75,30.14,4.77,24.20,1011.40,2037.70,3430.83,3236.46,3530.25,349.90,344.25,2.37,0000 0000 0000 0000 000000
2015-07-21 04:03:22,-0.02,0.03,0.00,24.35,27.77,30.15,4.67,24.18,1011.44,2037.34,3430.49,3236.14,3530.04,350.20,344.65,2.40,0000 0000 0000 0000 000000
2015-07-21 04:08:24,-0.03,0.03,0.00,24.35,27.77,30.16,4.67,24.22,1011.58,2037.09,3430.05,3236.02,3530.00,350.20,344.59,2.43,0000 0000 0000 0000 000000
2015-07-21 04:13:25,0.00,0.03,0.00,24.36,27.80,30.17,4.77,24.13,1011.62,2037.07,3430.03,3236.02,3529.99,350.26,344.74,2.46,0000 0000 0000 0000 000000
2015-07-21 04:18:26,-0.00,0.03,0.00,24.36,27.80,30.19,4.68,24.09,1011.70,2037.07,3430.02,3236.01,3529.99,350.25,344.70,2.49,0000 0000 0000 0000 000000
2015-07-21 04:23:27,-0.00,0.03,0.00,24.37,27.82,30.19,4.72,24.06,1011.73,2037.03,3430.00,3236.00,3529.98,349.63,344.38,2.52,0000 0000 0000 0000 000000
2015-07-21 04:28:28,-0.00,0.03,0.00,24.40,27.82,30.21,4.73,24.17,1011.72,2037.01,3430.00,3236.00,3529.98,350.25,344.61,2.55,0000 0000 0000 0000 000000
2015-07-21 04:33:30,0.00,0.03,0.00,24.40,27.83,30.22,4.74,24.12,1011.71,2037.01,3430.00,3236.00,3529.96,349.91,344.30,2.58,0000 0000 0000 0000 000000
2015-07-21 04:38:31,0.00,0.03,0.00,24.40,27.85,30.22,4.73,24.16,1011.72,2037.01,3429.99,3236.00,3529.89,349.91,344.22,2.61,0000 0000 0000 0000 000000
2015-07-21 04:43:32,0.00,0.03,0.00,24.40,27.85,30.23,4.69,24.11,1011.73,2037.00,3429.99,3235.99,3529.73,350.42,344.82,2.64,0000 0000 0000 0000 000000
2015-07-21 04:48:33,0.05,0.03,0.00,24.40,27.87,30.25,4.76,24.12,1011.73,2037.00,3429.69,3235.72,3529.08,350.04,344.42,2.67,0000 0000 0000 0000 000000
2015-07-21 04:53:35,-0.01,0.03,0.00,24.40,27.87,30.25,4.69,24.09,1011.73,2037.00,3429.46,3235.55,3529.01,349.83,344.38,2.70,0000 0000 0000 0000 000000
2015-07-21 04:58:36,0.02,0.03,0.00,24.41,27.88,30.26,4.72,24.05,1011.73,2037.00,3429.40,3235.44,3529.00,350.15,344.60,2.72,0000 0000 0000 0000 000000
2015-07-21 05:03:38,0.01,0.03,0.00,24.42,27.90,30.27,4.76,24.09,1011.73,2037.00,3429.17,3235.27,3529.00,350.14,344.61,2.75,0000 0000 0000 0000 000000
2015-07-21 05:08:39,0.01,0.03,0.00,24.42,27.90,30.27,4.68,24.03,1011.74,2036.99,3429.01,3235.04,3528.98,350.05,344.42,2.78,0000 0000 0000 0000 000000
2015-07-21 05:13:40,0.00,0.03,0.00,24.42,27.91,30.28,4.70,24.08,1011.76,2036.98,3429.00,3235.00,3528.92,350.22,344.37,2.81,0000 0000 0000 0000 000000
2015-07-21 05:18:42,0.00,0.03,0.00,24.43,27.92,30.28,4.63,24.10,1011.76,2036.98,3429.00,3235.00,3528.78,349.20,343.66,2.84,0000 0000 0000 0000 000000
2015-07-21 05:23:43,0.00,0.03,0.00,24.43,27.92,30.29,4.81,24.07,1011.77,2036.98,3428.99,3235.01,3528.71,350.39,344.60,2.87,0000 0000 0000 0000 000000
2015-07-21 05:28:44,0.00,0.03,0.00,24.44,27.93,30.31,4.72,24.05,1011.75,2036.96,3428.97,3235.00,3528.23,350.23,344.57,2.90,0000 0000 0000 0000 000000
2015-07-21 05:33:45,0.00,0.03,0.00,24.41,27.95,30.33,4.70,24.06,1011.75,2036.96,3428.97,3235.00,3528.08,349.81,343.93,2.93,0000 0000 0000 0000 000000
2015-07-21 05:38:47,-0.00,0.03,0.00,24.38,27.95,30.33,4.67,24.02,1011.75,2036.96,3428.97,3234.99,3528.12,350.07,344.47,2.96,0000 0000 0000 0000 000000
2015-07-21 05:43:48,-0.00,0.03,0.00,24.39,27.95,30.34,4.77,23.99,1011.84,2036.92,3428.90,3234.98,3528.03,350.89,345.30,2.99,0000 0000 0000 0000 000000
2015-07-21 05:48:49,0.01,0.03,0.00,24.40,27.95,30.33,4.71,23.98,1011.98,2036.91,3428.86,3234.98,3528.01,350.16,344.64,3.02,0000 0000 0000 0000 000000
2015-07-21 05:53:50,0.00,0.03,0.00,24.41,27.96,30.33,4.73,24.10,1012.08,2036.90,3428.88,3234.98,3528.01,349.92,344.39,3.05,0000 0000 0000 0000 000000
2015-07-21 05:58:52,-0.01,0.03,0.00,24.42,27.97,30.33,4.75,24.01,1012.08,2036.87,3428.74,3234.98,3528.00,350.20,344.59,3.08,0000 0000 0000 0000 000000
2015-07-21 06:03:53,-0.03,0.03,0.00,24.43,27.97,30.34,4.71,24.10,1012.12,2036.67,3428.36,3234.92,3528.00,350.16,344.55,3.11,0000 0000 0000 0000 000000
2015-07-21 06:08:55,-0.01,0.03,0.00,24.45,27.97,30.34,4.79,24.16,1012.17,2036.43,3428.12,3234.85,3528.00,350.48,344.96,3.13,0000 0000 0000 0000 000000
2015-07-21 06:13:56,0.02,0.03,0.00,24.42,27.97,30.34,4.78,23.97,1012.19,2036.55,3428.06,3234.79,3527.99,350.74,345.24,3.16,0000 0000 0000 0000 000000
2015-07-21 06:18:57,-0.03,0.03,0.00,24.38,27.97,30.37,4.71,24.08,1012.13,2036.44,3428.08,3234.85,3527.99,350.05,344.76,3.19,0000 0000 0000 0000 000000
2015-07-21 06:23:58,0.01,0.03,0.00,24.36,27.97,30.47,4.61,24.00,1012.07,2036.39,3428.01,3234.64,3527.99,349.66,344.22,3.22,0000 0000 0000 0000 000000
2015-07-21 06:29:00,-0.01,0.03,0.00,24.35,27.97,30.50,4.73,23.98,1012.12,2036.52,3428.02,3234.76,3527.99,349.41,344.01,3.25,0000 0000 0000 0000 000000
2015-07-21 06:34:01,0.03,0.03,0.00,24.35,27.97,30.47,4.76,24.08,1012.18,2036.65,3428.04,3234.86,3527.99,350.16,344.69,3.28,0000 0000 0000 0000 000000
2015-07-21 06:39:03,0.03,0.03,0.00,24.36,27.97,30.43,4.70,24.03,1012.15,2036.79,3428.01,3234.74,3527.99,350.32,344.96,3.31,0000 0000 0000 0000 000000
2015-07-21 06:44:03,-0.01,0.03,0.00,24.37,27.95,30.40,4.67,24.01,1012.21,2036.77,3428.00,3234.86,3527.99,349.95,344.70,3.34,0000 0000 0000 0000 000000
2015-07-21 06:49:05,0.00,0.03,0.00,24.38,27.95,30.36,4.67,24.02,1012.22,2036.81,3428.00,3234.82,3527.99,349.72,344.43,3.37,0000 0000 0000 0000 000000
2015-07-21 06:54:06,-0.02,0.03,0.00,24.39,27.95,30.33,4.76,23.89,1012.22,2036.67,3428.00,3234.79,3527.98,349.85,343.99,3.40,0000 0000 0000 0000 000000
2015-07-21 06:59:07,0.00,0.03,0.00,24.39,27.95,30.30,4.77,23.98,1012.22,2036.74,3428.00,3234.78,3527.99,349.89,344.37,3.43,0000 0000 0000 0000 000000
2015-07-21 07:04:08,0.03,0.03,0.00,24.40,27.95,30.31,4.68,23.98,1012.22,2036.81,3428.00,3234.89,3527.99,350.03,344.58,3.46,0000 0000 0000 0000 000000
2015-07-21 07:09:09,-0.02,0.03,0.00,24.40,27.95,30.30,4.79,24.07,1012.22,2036.70,3428.00,3234.74,3527.97,350.54,345.16,3.49,0000 0000 0000 0000 000000
2015-07-21 07:14:10,-0.00,0.03,0.00,24.40,27.95,30.30,4.76,24.07,1012.22,2036.70,3428.00,3234.81,3527.99,350.32,344.96,3.52,0000 0000 0000 0000 000000
2015-07-21 07:19:12,0.01,0.03,0.00,24.40,27.95,30.30,4.69,24.05,1012.22,2036.76,3427.99,3234.76,3527.99,350.07,344.77,3.54,0000 0000 0000 0000 000000
2015-07-21 07:24:13,-0.01,0.03,0.00,24.40,27.95,30.30,4.76,24.07,1012.22,2036.67,3427.99,3234.66,3527.98,350.22,344.77,3.57,0000 0000 0000 0000 000000
2015-07-21 07:29:14,0.02,0.03,0.00,24.42,27.95,30.29,4.70,24.02,1012.22,2036.75,3427.99,3234.75,3527.99,350.09,344.73,3.60,0000 0000 0000 0000 000000
2015-07-21 07:34:15,-0.01,0.03,0.00,24.43,27.95,30.30,4.69,23.89,1012.22,2036.67,3427.99,3234.73,3527.98,350.12,344.81,3.63,0000 0000 0000 0000 000000
2015-07-21 07:39:17,0.00,0.03,0.00,24.42,27.95,30.30,4.71,23.97,1012.22,2036.71,3427.99,3234.75,3527.98,350.28,344.71,3.66,0000 0000 0000 0000 000000
2015-07-21 07:44:18,-0.03,0.03,0.00,24.42,27.95,30.31,4.74,23.96,1012.23,2036.58,3428.00,3234.68,3527.97,349.93,344.46,3.69,0000 0000 0000 0000 000000
2015-07-21 07:49:20,-0.01,0.03,0.00,24.42,27.95,30.38,4.67,23.91,1012.23,2036.41,3428.00,3234.63,3527.97,349.98,344.55,3.72,0000 0000 0000 0000 000000
2015-07-21 07:54:21,0.04,0.03,0.00,24.40,27.95,30.44,4.71,23.97,1012.24,2036.66,3428.00,3234.81,3527.99,349.99,344.55,3.75,0000 0000 0000 0000 000000
2015-07-21 07:59:22,0.00,0.03,0.00,24.36,27.95,30.51,4.68,23.96,1012.24,2036.79,3428.00,3234.94,3527.99,350.09,344.54,3.78,0000 0000 0000 0000 000000
2015-07-21 08:04:24,0.01,0.03,0.00,24.33,27.95,30.57,4.77,23.95,1012.31,2036.85,3428.00,3234.91,3527.99,350.15,344.80,3.81,0000 0000 0000 0000 000000
2015-07-21 08:09:25,0.01,0.03,0.00,24.32,27.92,30.54,4.77,24.02,1012.56,2036.94,3427.99,3234.96,3527.99,350.03,344.84,3.84,0000 0000 0000 0000 000000
2015-07-21 08:14:26,0.00,0.03,0.00,24.32,27.92,30.48,4.74,23.98,1012.63,2036.98,3428.00,3234.98,3528.00,350.12,344.83,3.87,0000 0000 0000 0000 000000
2015-07-21 08:19:27,-0.00,0.03,0.00,24.32,27.90,30.44,4.69,24.01,1012.59,2036.97,3428.02,3234.99,3528.00,350.40,345.23,3.90,0000 0000 0000 0000 000000
2015-07-21 08:24:28,0.00,0.03,0.00,24.32,27.90,30.42,4.65,23.74,1012.54,2036.98,3428.01,3234.99,3528.01,349.61,344.31,3.93,0000 0000 0000 0000 000000
2015-07-21 08:29:29,-0.00,0.03,0.00,24.32,27.88,30.33,4.81,23.99,1012.62,2036.98,3428.05,3234.99,3528.01,350.53,345.30,3.96,0000 0000 0000 0000 000000
2015-07-21 08:34:30,0.00,0.03,0.00,24.34,27.87,30.25,4.72,23.99,1012.63,2036.99,3428.08,3234.99,3528.02,350.45,345.19,3.98,0000 0000 0000 0000 000000
2015-07-21 08:39:31,-0.00,0.03,0.00,24.35,27.87,30.23,4.70,24.01,1012.64,2036.99,3428.10,3234.99,3528.05,349.90,344.75,4.01,0000 0000 0000 0000 000000
2015-07-21 08:44:33,-0.01,0.03,0.00,24.36,27.86,30.20,4.55,23.89,1012.67,2036.99,3428.18,3234.99,3528.07,349.82,344.81,4.04,0000 0000 0000 0000 000000
2015-07-21 08:49:34,-0.01,0.03,0.00,24.37,27.85,30.19,4.72,23.93,1012.69,2036.99,3428.35,3235.00,3528.14,350.24,345.14,4.07,0000 0000 0000 0000 000000
2015-07-21 08:54:35,-0.01,0.03,0.00,24.37,27.85,30.18,4.81,24.02,1012.67,2036.99,3428.66,3235.02,3528.31,350.56,345.20,4.10,0000 0000 0000 0000 000000
2015-07-21 08:59:37,-0.01,0.03,0.00,24.37,27.85,30.19,4.71,23.96,1012.71,2036.99,3428.88,3235.03,3528.41,350.47,345.07,4.13,0000 0000 0000 0000 000000
2015-07-21 09:04:38,-0.00,0.03,0.00,24.40,27.85,30.18,4.75,24.11,1012.71,2036.99,3428.85,3235.04,3528.42,350.27,345.00,4.16,0000 0000 0000 0000 000000
2015-07-21 09:09:39,0.01,0.03,0.00,24.40,27.85,30.19,4.77,24.01,1012.71,2036.99,3428.56,3235.03,3528.16,350.55,345.26,4.19,0000 0000 0000 0000 000000
2015-07-21 09:14:40,0.00,0.03,0.00,24.40,27.86,30.20,4.65,23.93,1012.71,2036.99,3428.82,3235.02,3528.15,349.38,343.95,4.22,0000 0000 0000 0000 000000
2015-07-21 09:19:42,0.00,0.03,0.00,24.40,27.87,30.20,4.81,23.97,1012.71,2036.99,3428.79,3235.01,3528.06,350.40,344.99,4.25,0000 0000 0000 0000 000000
2015-07-21 09:24:42,-0.00,0.03,0.00,24.41,27.87,30.22,4.75,23.96,1012.71,2036.99,3428.84,3235.01,3528.06,350.13,344.93,4.28,0000 0000 0000 0000 000000
2015-07-21 09:29:44,0.00,0.03,0.00,24.42,27.87,30.22,4.82,23.94,1012.71,2036.99,3428.75,3235.01,3528.04,350.47,345.20,4.31,0000 0000 0000 0000 000000
2015-07-21 09:34:45,0.00,0.03,0.00,24.42,27.87,30.23,4.60,23.89,1012.71,2036.99,3428.59,3235.01,3528.01,350.07,344.45,4.34,0000 0000 0000 0000 000000
2015-07-21 09:39:46,0.00,0.03,0.00,24.42,27.89,30.23,4.66,23.89,1012.71,2036.98,3428.37,3235.00,3528.00,349.47,344.05,4.36,0000 0000 0000 0000 000000
2015-07-21 09:44:47,-0.00,0.03,0.00,24.41,27.90,30.25,4.68,23.94,1012.71,2036.95,3428.16,3235.00,3528.00,350.43,344.97,4.39,0000 0000 0000 0000 000000
2015-07-21 09:49:48,0.01,0.03,0.00,24.41,27.90,30.25,4.71,23.86,1012.71,2036.97,3428.21,3235.00,3528.00,349.91,344.52,4.42,0000 0000 0000 0000 000000
2015-07-21 09:54:49,0.00,0.03,0.00,24.42,27.90,30.26,4.76,23.95,1012.73,2036.98,3428.13,3235.00,3528.00,350.04,344.67,4.45,0000 0000 0000 0000 000000
2015-07-21 09:59:51,0.00,0.03,0.00,24.42,27.92,30.27,4.77,23.98,1012.72,2036.98,3428.10,3235.00,3528.00,350.30,345.05,4.48,0000 0000 0000 0000 000000
2015-07-21 10:04:52,-0.00,0.03,0.00,24.42,27.92,30.27,4.87,24.02,1012.73,2036.95,3428.04,3234.99,3528.00,349.88,344.65,4.51,0000 0000 0000 0000 000000
2015-07-21 10:09:53,-0.01,0.03,0.00,24.42,27.92,30.28,4.67,23.94,1012.73,2036.82,3428.00,3234.95,3527.95,350.14,344.83,4.54,0000 0000 0000 0000 000000
2015-07-21 10:14:54,0.01,0.03,0.00,24.43,27.93,30.29,4.75,23.86,1012.73,2036.90,3428.00,3234.95,3527.95,350.42,345.11,4.57,0000 0000 0000 0000 000000
2015-07-21 10:19:56,-0.02,0.03,0.00,24.42,27.94,30.31,4.70,23.88,1012.73,2036.67,3428.00,3234.87,3527.81,350.05,344.54,4.60,0000 0000 0000 0000 000000
2015-07-21 10:24:57,-0.00,0.03,0.00,24.42,27.95,30.31,4.85,23.91,1012.73,2036.70,3428.00,3234.86,3527.80,350.77,345.33,4.63,0000 0000 0000 0000 000000
2015-07-21 10:29:58,-0.03,0.03,0.00,24.43,27.95,30.31,4.77,23.84,1012.73,2036.29,3428.00,3234.51,3527.41,350.37,345.06,4.66,0000 0000 0000 0000 000000
2015-07-21 10:34:59,0.00,0.03,0.00,24.43,27.95,30.32,4.63,23.74,1012.71,2036.20,3427.98,3234.28,3527.20,349.56,344.25,4.69,0000 0000 0000 0000 000000
2015-07-21 10:40:00,0.00,0.03,0.00,24.44,27.97,30.33,4.67,23.84,1012.73,2036.16,3427.98,3234.17,3527.15,349.91,344.77,4.72,0000 0000 0000 0000 000000
2015-07-21 10:45:02,0.03,0.03,0.00,24.42,27.97,30.33,4.67,23.84,1012.72,2036.36,3427.97,3234.25,3527.21,349.78,344.40,4.75,0000 0000 0000 0000 000000
2015-07-21 10:50:03,-0.00,0.03,0.00,24.42,27.97,30.34,4.69,23.89,1012.72,2036.28,3427.95,3234.15,3527.13,349.91,344.62,4.77,0000 0000 0000 0000 000000
2015-07-21 10:55:04,0.00,0.03,0.00,24.42,27.98,30.35,4.84,23.82,1012.72,2036.37,3427.96,3234.28,3527.20,350.51,345.04,4.80,0000 0000 0000 0000 000000
2015-07-21 11:00:05,-0.02,0.03,0.00,24.42,27.99,30.35,4.77,23.88,1012.73,2036.25,3427.97,3234.19,3527.14,350.02,344.81,4.83,0000 0000 0000 0000 000000
2015-07-21 11:05:07,-0.01,0.03,0.00,24.42,28.00,30.35,4.80,24.01,1012.73,2036.08,3427.82,3234.05,3527.03,350.00,344.76,4.86,0000 0000 0000 0000 000000
2015-07-21 11:10:08,0.01,0.03,0.00,24.42,28.00,30.36,4.77,23.93,1012.74,2036.03,3427.26,3234.00,3527.00,350.19,344.99,4.89,0000 0000 0000 0000 000000
2015-07-21 11:15:09,0.00,0.03,0.00,24.44,28.00,30.36,4.72,23.90,1012.74,2036.04,3427.24,3234.01,3527.00,350.14,344.85,4.92,0000 0000 0000 0000 000000
2015-07-21 11:20:10,-0.00,0.03,0.00,24.43,28.00,30.37,4.59,24.00,1012.76,2036.03,3427.28,3234.00,3527.00,349.81,344.47,4.95,0000 0000 0000 0000 000000
2015-07-21 11:25:11,-0.00,0.03,0.00,24.43,28.00,30.36,4.71,23.94,1012.76,2036.01,3427.15,3234.00,3527.00,349.98,344.88,4.98,0000 0000 0000 0000 000000
2015-07-21 11:30:13,0.00,0.03,0.00,24.45,28.01,30.37,4.82,24.00,1012.74,2036.04,3427.15,3234.00,3527.00,350.16,344.84,5.01,0000 0000 0000 0000 000000
2015-07-21 11:35:14,-0.00,0.03,0.00,24.44,28.02,30.38,4.71,24.08,1012.75,2036.01,3427.04,3234.00,3527.00,350.28,345.07,5.04,0000 0000 0000 0000 000000
2015-07-21 11:40:16,-0.00,0.03,0.00,24.42,28.02,30.38,4.73,24.02,1012.79,2036.01,3427.01,3234.00,3526.99,350.15,345.12,5.07,0000 0000 0000 0000 000000
2015-07-21 11:45:17,0.00,0.03,0.00,24.43,28.02,30.38,4.75,23.95,1012.79,2036.00,3427.01,3234.00,3526.99,350.28,344.68,5.10,0000 0000 0000 0000 000000
2015-07-21 11:50:18,0.00,0.03,0.00,24.44,28.02,30.38,4.76,23.93,1012.75,2036.01,3427.02,3234.00,3526.99,349.91,344.50,5.13,0000 0000 0000 0000 000000
2015-07-21 11:55:19,0.00,0.03,0.00,24.43,28.02,30.39,4.67,23.96,1012.76,2036.00,3427.00,3234.00,3526.98,349.79,344.48,5.16,0000 0000 0000 0000 000000
2015-07-21 12:00:20,-0.00,0.03,0.00,24.42,28.02,30.39,4.68,23.96,1012.90,2036.00,3427.00,3233.99,3526.95,349.59,344.60,5.18,0000 0000 0000 0000 000000
2015-07-21 12:05:22,0.00,0.03,0.00,24.42,28.02,30.39,4.66,23.98,1013.01,2036.00,3427.00,3233.99,3526.90,350.05,344.90,5.21,0000 0000 0000 0000 000000
2015-07-21 12:10:23,-0.00,0.03,0.00,24.43,28.03,30.38,4.75,23.96,1012.97,2036.00,3426.99,3233.98,3526.82,349.93,344.78,5.24,0000 0000 0000 0000 000000
2015-07-21 12:15:24,0.00,0.03,0.00,24.42,28.04,30.38,4.70,23.94,1012.84,2036.00,3427.00,3233.98,3526.86,349.97,344.66,5.27,0000 0000 0000 0000 000000
2015-07-21 12:20:25,0.01,0.03,0.00,24.42,28.04,30.39,4.73,23.95,1012.78,2036.00,3426.99,3233.97,3526.53,350.53,345.37,5.30,0000 0000 0000 0000 000000
2015-07-21 12:25:27,0.01,0.03,0.00,24.41,28.05,30.40,4.68,23.92,1012.77,2036.00,3426.99,3233.93,3526.26,349.96,344.59,5.33,0000 0000 0000 0000 000000
2015-07-21 12:30:28,-0.00,0.03,0.00,24.41,28.05,30.41,4.73,23.88,1012.77,2036.00,3426.98,3233.91,3526.26,350.24,344.97,5.36,0000 0000 0000 0000 000000
2015-07-21 12:35:29,0.01,0.03,0.00,24.42,28.05,30.39,4.66,23.78,1012.78,2036.00,3426.96,3233.74,3526.09,349.89,344.61,5.39,0000 0000 0000 0000 000000
2015-07-21 12:40:30,-0.01,0.03,0.00,24.41,28.05,30.40,4.63,23.83,1012.75,2036.00,3426.98,3233.88,3526.19,349.99,344.65,5.42,0000 0000 0000 0000 000000
2015-07-21 12:45:32,0.02,0.03,0.00,24.41,28.05,30.39,4.83,23.87,1012.74,2036.00,3426.94,3233.54,3526.03,350.59,345.05,5.45,0000 0000 0000 0000 000000
2015-07-21 12:50:33,0.00,0.03,0.00,24.40,28.05,30.39,4.73,23.99,1012.72,2036.00,3426.84,3233.38,3526.02,349.88,344.67,5.48,0000 0000 0000 0000 000000
2015-07-21 12:55:34,0.03,0.03,0.00,24.40,28.05,30.39,4.80,24.01,1012.72,2036.00,3426.47,3233.14,3526.00,350.78,345.54,5.51,0000 0000 0000 0000 000000
2015-07-21 13:00:36,0.00,0.03,0.00,24.40,28.05,30.40,4.79,24.04,1012.71,2036.00,3426.04,3233.03,3526.00,350.46,345.13,5.54,0000 0000 0000 0000 000000
2015-07-21 13:05:37,-0.00,0.03,0.00,24.39,28.05,30.41,4.76,23.98,1012.71,2036.00,3426.00,3233.01,3525.98,350.09,344.90,5.57,0000 0000 0000 0000 000000